Location: Austin
(30.3000°N, 97.7500°W)
Time: 23:44:46
(UTC-05:00)

Cosmos 1898 Rocket - Pass Details

Date: 05 September 2024
Orbit: 750 x 781 km, 74.0° (Epoch: 14 September)

Event Time Altitude Azimuth Distance (km) Brightness Sun altitude
Rises 20:44:57 0° 355° (N) 3,265 7.0 -12.9°
Reaches altitude 10° 20:47:34 10° 4° (N) 2,331 6.1 -13.4°
Maximum altitude 20:52:21 34° 69° (ENE) 1,253 4.2 -14.4°
Enters shadow 20:54:52 22° 116° (ESE) 1,619 4.6 -14.9°
